When you browse on this site, cookies collect data to enhance your experience and personalize the content and advertising you see.
Visit our Privacy Policy to learn more. By continuing to use the site, you agree to this use of cookies and data.

Hourly Weather Gielniow

Today, 21 September, Monday

Time Temperature Precipitation Wind Pressure Humidity
00:00 +12°C° 0 mm 2 mps 747 mmHg 72%
01:00 +12°C° 0 mm 2 mps 746 mmHg 73%
02:00 +10°C° 0 mm 2 mps 746 mmHg 74%
03:00 +10°C° 0 mm 2 mps 746 mmHg 74%
04:00 +10°C° 0 mm 2 mps 746 mmHg 75%
05:00 +12°C° 0 mm 1 mps 746 mmHg 72%
06:00 +12°C° 0 mm 1 mps 746 mmHg 70%
07:00 +13°C° 0 mm 1 mps 746 mmHg 67%
08:00 +15°C° 0 mm 1 mps 746 mmHg 61%
09:00 +19°C° 0 mm 1 mps 746 mmHg 54%
10:00 +21°C° 0 mm 1 mps 746 mmHg 48%
11:00 +22°C° 0 mm 1 mps 746 mmHg 45%
12:00 +23°C° 0 mm 1 mps 746 mmHg 41%
13:00 +25°C° 0 mm 1 mps 746 mmHg 38%
14:00 +25°C° 0 mm 1 mps 746 mmHg 40%
15:00 +24°C° 0 mm 1 mps 746 mmHg 42%
16:00 +24°C° 0 mm 1 mps 745 mmHg 43%
17:00 +22°C° 0 mm 1 mps 745 mmHg 48%
18:00 +20°C° 0 mm 1 mps 745 mmHg 53%
19:00 +18°C° 0 mm 1 mps 745 mmHg 58%
20:00 +18°C° 0 mm 1 mps 745 mmHg 60%
21:00 +16°C° 0 mm 2 mps 745 mmHg 61%
22:00 +16°C° 0 mm 2 mps 745 mmHg 63%
23:00 +15°C° 0 mm 2 mps 745 mmHg 64%

Tomorrow, 22 September, Tuesday

Time Temperature Precipitation Wind Pressure Humidity
00:00 +15°C° 0 mm 1 mps 745 mmHg 65%
01:00 +15°C° 0 mm 1 mps 745 mmHg 66%
02:00 +15°C° 0 mm 2 mps 745 mmHg 66%
03:00 +15°C° 0 mm 2 mps 744 mmHg 66%
04:00 +14°C° 0 mm 2 mps 744 mmHg 65%
05:00 +15°C° 0 mm 2 mps 744 mmHg 64%
06:00 +16°C° 0 mm 2 mps 744 mmHg 62%
07:00 +17°C° 0 mm 2 mps 744 mmHg 61%
08:00 +19°C° 0 mm 2 mps 744 mmHg 54%
09:00 +21°C° 0 mm 2 mps 744 mmHg 47%
10:00 +25°C° 0 mm 3 mps 744 mmHg 41%
11:00 +26°C° 0 mm 3 mps 744 mmHg 38%
12:00 +27°C° 0 mm 3 mps 744 mmHg 36%
13:00 +28°C° 0 mm 3 mps 743 mmHg 34%
14:00 +27°C° 0 mm 3 mps 743 mmHg 37%
15:00 +26°C° 0 mm 3 mps 742 mmHg 40%
16:00 +26°C° 0 mm 2 mps 742 mmHg 43%
17:00 +24°C° 0 mm 2 mps 742 mmHg 46%
18:00 +21°C° 0 mm 2 mps 741 mmHg 50%
19:00 +19°C° 0 mm 2 mps 741 mmHg 54%
20:00 +18°C° 0 mm 2 mps 741 mmHg 55%
21:00 +18°C° 0 mm 2 mps 741 mmHg 55%
22:00 +17°C° 0 mm 2 mps 741 mmHg 56%
23:00 +17°C° 0 mm 2 mps 741 mmHg 58%

Day after tomorrow, 23 September, Wednesday

Time Temperature Precipitation Wind Pressure Humidity
00:00 +17°C° 0 mm 2 mps 740 mmHg 59%
01:00 +16°C° 0 mm 2 mps 740 mmHg 61%
02:00 +16°C° 0 mm 2 mps 740 mmHg 61%
03:00 +16°C° 0 mm 2 mps 740 mmHg 61%
04:00 +16°C° 0 mm 2 mps 739 mmHg 61%
05:00 +16°C° 0 mm 2 mps 739 mmHg 60%
06:00 +17°C° 0 mm 2 mps 739 mmHg 60%
07:00 +18°C° 0 mm 2 mps 739 mmHg 59%
08:00 +20°C° 0 mm 2 mps 739 mmHg 52%
09:00 +24°C° 0 mm 3 mps 739 mmHg 46%
10:00 +26°C° 0 mm 3 mps 739 mmHg 39%
11:00 +27°C° 0 mm 3 mps 738 mmHg 37%
12:00 +28°C° 0 mm 3 mps 738 mmHg 35%
13:00 +30°C° 0 mm 3 mps 738 mmHg 33%
14:00 +29°C° 0 mm 3 mps 738 mmHg 36%
15:00 +28°C° 0 mm 2 mps 737 mmHg 39%
16:00 +28°C° 0 mm 2 mps 737 mmHg 43%
17:00 +26°C° 0 mm 2 mps 737 mmHg 48%
18:00 +24°C° 0 mm 2 mps 737 mmHg 53%
19:00 +21°C° 0 mm 2 mps 737 mmHg 59%
20:00 +21°C° 0 mm 1 mps 737 mmHg 60%
21:00 +20°C° 0 mm 1 mps 737 mmHg 62%
22:00 +20°C° 0 mm 1 mps 737 mmHg 64%
23:00 +20°C° 0 mm 1 mps 737 mmHg 67%

24 September, Thursday

Time Temperature Precipitation Wind Pressure Humidity
00:00 +19°C° 0 mm 1 mps 737 mmHg 69%
01:00 +19°C° 0 mm 1 mps 737 mmHg 72%
02:00 +18°C° 0 mm 2 mps 737 mmHg 74%
03:00 +17°C° 0 mm 2 mps 737 mmHg 76%
04:00 +17°C° 0 mm 2 mps 737 mmHg 78%
05:00 +17°C° 0 mm 2 mps 737 mmHg 78%
06:00 +18°C° 0 mm 2 mps 737 mmHg 78%
07:00 +18°C° 0 mm 3 mps 738 mmHg 77%
08:00 +20°C° 0 mm 3 mps 738 mmHg 72%
09:00 +22°C° 0 mm 3 mps 738 mmHg 66%
10:00 +24°C° 0 mm 3 mps 738 mmHg 60%
11:00 +25°C° 0 mm 3 mps 739 mmHg 56%
12:00 +26°C° 0 mm 3 mps 739 mmHg 52%
13:00 +27°C° 0 mm 3 mps 739 mmHg 48%
14:00 +26°C° 0 mm 3 mps 739 mmHg 50%
15:00 +26°C° 0 mm 3 mps 739 mmHg 51%
16:00 +26°C° 0 mm 2 mps 738 mmHg 53%
17:00 +24°C° 0.1 mm 2 mps 739 mmHg 60%
18:00 +21°C° 0.1 mm 2 mps 739 mmHg 67%
19:00 +19°C° 0.1 mm 2 mps 739 mmHg 74%
20:00 +19°C° 0 mm 2 mps 739 mmHg 75%
21:00 +19°C° 0 mm 2 mps 739 mmHg 76%
22:00 +18°C° 0 mm 2 mps 739 mmHg 78%
23:00 +18°C° 0 mm 2 mps 739 mmHg 79%

25 September, Friday

Time Temperature Precipitation Wind Pressure Humidity
00:00 +18°C° 0 mm 2 mps 739 mmHg 81%
01:00 +17°C° 0 mm 2 mps 739 mmHg 82%
02:00 +17°C° 0 mm 2 mps 738 mmHg 83%
03:00 +17°C° 0 mm 2 mps 738 mmHg 84%
04:00 +17°C° 0 mm 2 mps 737 mmHg 84%
05:00 +17°C° 0 mm 3 mps 737 mmHg 82%
06:00 +18°C° 0 mm 3 mps 737 mmHg 80%
07:00 +18°C° 0 mm 4 mps 736 mmHg 78%
08:00 +20°C° 0 mm 4 mps 736 mmHg 72%
09:00 +22°C° 0 mm 5 mps 735 mmHg 65%
10:00 +23°C° 0 mm 6 mps 735 mmHg 58%
11:00 +24°C° 0 mm 6 mps 735 mmHg 54%
12:00 +26°C° 0 mm 6 mps 734 mmHg 50%
13:00 +27°C° 0 mm 7 mps 734 mmHg 45%
14:00 +26°C° 0.1 mm 6 mps 733 mmHg 52%
15:00 +23°C° 0.1 mm 5 mps 733 mmHg 59%
16:00 +22°C° 0.1 mm 4 mps 732 mmHg 66%
17:00 +21°C° 0 mm 5 mps 732 mmHg 66%
18:00 +21°C° 0 mm 6 mps 732 mmHg 66%
19:00 +21°C° 0 mm 7 mps 732 mmHg 66%
20:00 +19°C° 0.2 mm 6 mps 733 mmHg 71%
21:00 +17°C° 0.2 mm 6 mps 733 mmHg 76%
22:00 +16°C° 0.2 mm 6 mps 733 mmHg 81%
23:00 +15°C° 1.7 mm 6 mps 733 mmHg 84%

26 September, Saturday

Time Temperature Precipitation Wind Pressure Humidity
00:00 +14°C° 1.7 mm 5 mps 733 mmHg 87%
01:00 +12°C° 1.7 mm 5 mps 733 mmHg 89%
02:00 +12°C° 0 mm 4 mps 733 mmHg 88%
03:00 +12°C° 0 mm 4 mps 733 mmHg 88%
04:00 +12°C° 0 mm 3 mps 733 mmHg 87%
05:00 +12°C° 0 mm 3 mps 733 mmHg 87%
06:00 +12°C° 0 mm 3 mps 734 mmHg 86%
07:00 +11°C° 0 mm 3 mps 734 mmHg 86%
08:00 +12°C° 0 mm 3 mps 734 mmHg 84%
09:00 +13°C° 0 mm 2 mps 734 mmHg 83%
10:00 +13°C° 0 mm 2 mps 734 mmHg 82%
11:00 +13°C° 0 mm 2 mps 734 mmHg 81%
12:00 +14°C° 0 mm 2 mps 734 mmHg 79%
13:00 +14°C° 0 mm 2 mps 734 mmHg 78%
14:00 +13°C° 0 mm 3 mps 734 mmHg 80%
15:00 +13°C° 0 mm 3 mps 733 mmHg 82%
16:00 +13°C° 0 mm 4 mps 733 mmHg 84%
17:00 +13°C° 0.1 mm 5 mps 732 mmHg 86%
18:00 +13°C° 0.1 mm 6 mps 731 mmHg 88%
19:00 +12°C° 0.1 mm 7 mps 730 mmHg 91%
20:00 +14°C° 0.6 mm 7 mps 730 mmHg 91%
21:00 +13°C° 0.6 mm 8 mps 729 mmHg 91%
22:00 +13°C° 0.6 mm 8 mps 729 mmHg 92%
23:00 +11°C° 0.2 mm 8 mps 729 mmHg 89%
Show more